Location: Newark
(25.4800°N, 85.7200°E)
Time: 06:46:04
(UTC+00:00)

deb Explorer IX - Visible Passes

Search period start: 22 August 2019 00:00
Search period end: 01 September 2019 00:00
Orbit: 540 x 1111 km, 38.8° (Epoch: 20 August)

Date Brightness Start Highest point End Pass type
(mag) Time Alt. Az. Time Alt. Az. Time Alt. Az.
22 Aug ? 13:13:32 10° WNW 13:20:56 81° SW 13:27:59 10° SE visible
22 Aug ? 15:02:48 10° W 15:07:51 20° SW 15:09:25 19° SSW visible
23 Aug ? 14:40:39 10° W 14:45:43 20° SW 14:48:54 15° SSW visible
24 Aug ? 14:18:31 10° W 14:23:34 20° SW 14:28:27 10° S visible
25 Aug ? 13:56:24 10° W 14:01:25 20° SW 14:06:19 10° S visible
26 Aug ? 13:34:18 10° W 13:39:15 19° SW 13:44:08 10° S visible
27 Aug ? 13:12:14 10° W 13:17:06 19° SW 13:21:56 10° S visible
